FENGYUN 1C DEB, 30289

Orbit data source: Space-Track

FENGYUN 1C DEB, 30289 is space debris in SSO originally from a launch on Mon, 10 May 1999 UTC launched from the Taiyaun Space Center, China (TSC). Fengyun 1C debris stems from the Chinese weather satellite Fengyun-1C, which was intentionally destroyed by a Chinese anti-satellite missile in 2007. This event dramatically increased the amount of space debris, with thousands of trackable fragments posing hazards to satellites and human spaceflight. The Fengyun 1C debris cloud has become a focal point in discussions about space sustainability and the need for international regulations to prevent the creation of new debris.

Loading next visibility...
Identifier
30289, 1999-025ZA
Orbit
SSO
Country
Flag of CNCN / PRC
Related business
Manufacturer
Unknown
Mission
Spacecraft
Bus & Motor
Unknown
Mass
Unknown
Launch date (UTC)
1999-05-10 (27 years ago)
Launch vehicle
Unknown
Launch site
Taiyaun Space Center, China (TSC)
Object type
Payload
Rocket body
Debris
Shape & HBR
Unknown shape, 0.1 m
Radar Cross Section
Small (<0.1 m²)

Expand to show TLE details & history
Last TLE update: 17 hours ago

TLE from 17 hours ago
0 FENGYUN 1C DEB
1 30289U 99025ZA  26124.03157917  .00003669  00000-0  15059-2 0  9991
2 30289  98.9243 228.2868 0034821 277.8549 260.1318 14.27368233991105
Epoch: 2026-05-04T00:45Z
TLE epoch observation values (Epoch: 2026-05-04T00:45:28.440Z)
Latitude
2.27451°
Longitude
175.34715°
Altitude
807.562 km
Speed
7.447 km/s
True Right ascension
03h 14m 34s
True Declination
2° 15' 40"
Sunlit
Object was in daylight at epoch
Visualization orbit readout
Latitude
Unknown
Longitude
Unknown
Altitude
Unknown
Speed
Unknown
Apparent Right ascension
Unknown
Apparent Declination
Unknown
Sunlit
N/A
Visualization observer readout
Local Sidereal Time
01:37:09
Azimuth
Unknown
Elevation
Unknown
Doppler factor
Unknown
Orbital elements
Apogee altitude
822.687 km
Perigee altitude
772.713 km
Semi-major axis
7,175.837 km
Eccentricity
0.00348
Inclination
98.9243°
RAAN
228.2868°
Arg. of periapsis
277.8549°
True anomaly
259.73898°
Mean anomaly
260.1318°
Eccentric anomaly
259.93536°
Mean motion
3.57054 °/min
Orbital period
100.82 mins
BSTAR
0.0015059
Loading maneuver chart data...
Computing Atmospheric mass density...

Documentation

Showing up to 5 results
|